Galesburg, IL

2:01 AM CST on February 21, 2017 (GMT -0600)
Galesburg Municipal

Weather History for KGBG - December, 2013

Change the Weather History Date:

Wednesday, December 18, 2013

  Actual Average Record
Temperature  
Mean Temperature 22 °F -  
Max Temperature 39 °F 33 °F 61 °F (1962)
Min Temperature 6 °F 17 °F -16 °F (1983)
Degree Days  
Heating Degree Days 42    
Moisture  
Dew Point 20 °F    
Average Humidity 77    
Maximum Humidity 97    
Minimum Humidity 56    
Precipitation  
Precipitation 0.00 in - - ()
Sea Level Pressure  
Sea Level Pressure 29.99 in    
Wind  
Wind Speed 7 mph (South)    
Max Wind Speed 16 mph    
Max Gust Speed 24 mph    
Visibility 10 miles    
Events      
Averages and records for this station are not official NWS values.
T = Trace of Precipitation, MM = Missing Value Source: NWS Daily Summary

Daily Weather History Graph

Daily Weather History Graph

Search for Another Location

Airport or City:

Trip Planner

Search our weather history database for the weather conditions in past years. The results will help you decide how hot, cold, wet, or windy it might be!

Date:

Astronomy

Dec. 18, 2013 Rise Set
Actual Time 7:21 AM CST 4:35 PM CST
Civil Twilight 6:50 AM CST 5:06 PM CST
Nautical Twilight 6:15 AM CST 5:41 PM CST
Astronomical Twilight 5:42 AM CST 6:14 PM CST
Moon 6:08 PM CST (12/18) 8:00 AM CST (12/18)
Length of Visible Light 10h 16m
Length of Day
9h 14m
Full, 98% of the Moon is Illuminated
Dec 18
Full
Dec 25
Last Quarter
Jan 1
New
Jan 7
First Quarter
Jan 15
Full

Hourly Weather History & Observations

Time (CST) Temp. Windchill Dew Point Humidity Pressure Visibility Wind Dir Wind Speed Gust Speed Precip Events Conditions
12:15 AM 15.8 °F 7.2 °F 12.0 °F 85% 30.18 in 10.0 mi West 5.8 mph - N/A   Clear
12:35 AM 16.7 °F 9.6 °F 13.1 °F 86% 30.18 in 10.0 mi West 4.6 mph - N/A   Clear
12:55 AM 15.4 °F 9.8 °F 12.0 °F 86% 30.18 in 10.0 mi West 3.5 mph - N/A   Clear
1:15 AM 15.1 °F 6.4 °F 12.0 °F 88% 30.17 in 10.0 mi WSW 5.8 mph - N/A   Clear
1:35 AM 16.2 °F 7.6 °F 11.8 °F 83% 30.17 in 10.0 mi WSW 5.8 mph - N/A   Clear
1:55 AM 16.5 °F 6.9 °F 12.0 °F 82% 30.18 in 10.0 mi West 6.9 mph - N/A   Clear
2:15 AM 16.7 °F 9.6 °F 12.0 °F 82% 30.18 in 10.0 mi WSW 4.6 mph - N/A   Clear
2:35 AM 13.3 °F 7.3 °F 10.0 °F 87% 30.18 in 10.0 mi SSW 3.5 mph - N/A   Clear
2:55 AM 12.0 °F 4.1 °F 10.4 °F 93% 30.18 in 10.0 mi SW 4.6 mph - N/A   Clear
3:15 AM 12.9 °F 5.2 °F 10.2 °F 89% 30.18 in 10.0 mi SSW 4.6 mph - N/A   Clear
3:35 AM 9.0 °F - 6.6 °F 90% 30.18 in 10.0 mi Calm Calm - N/A   Clear
3:55 AM 6.4 °F - 5.7 °F 97% 30.17 in 10.0 mi Calm Calm - N/A   Clear
4:15 AM 8.6 °F 2.0 °F 7.9 °F 97% 30.17 in 10.0 mi South 3.5 mph - N/A   Clear
4:35 AM 10.2 °F -0.6 °F 9.3 °F 96% 30.17 in 10.0 mi SSW 6.9 mph - N/A   Clear
4:55 AM 12.2 °F 2.9 °F 10.0 °F 91% 30.16 in 10.0 mi South 5.8 mph - N/A   Clear
5:15 AM 12.0 °F 1.5 °F 9.3 °F 89% 30.16 in 10.0 mi SSW 6.9 mph - N/A   Clear
5:35 AM 12.7 °F 5.0 °F 9.5 °F 87% 30.16 in 10.0 mi South 4.6 mph - N/A   Clear
5:55 AM 9.0 °F 0.6 °F 7.2 °F 92% 30.16 in 10.0 mi South 4.6 mph - N/A   Clear
6:15 AM 10.6 °F 2.5 °F 9.3 °F 95% 30.15 in 10.0 mi SSE 4.6 mph - N/A   Clear
6:35 AM 11.8 °F 3.9 °F 9.3 °F 90% 30.15 in 10.0 mi South 4.6 mph - N/A   Clear
6:55 AM 11.3 °F 3.3 °F 8.6 °F 89% 30.15 in 10.0 mi SSE 4.6 mph - N/A   Clear
7:15 AM 10.9 °F 2.9 °F 8.4 °F 90% 30.14 in 10.0 mi SSE 4.6 mph - N/A   Clear
7:35 AM 12.4 °F 3.1 °F 9.5 °F 88% 30.13 in 10.0 mi SSE 5.8 mph - N/A   Clear
7:55 AM 14.9 °F 5.0 °F 11.3 °F 86% 30.13 in 10.0 mi SSE 6.9 mph - N/A   Clear
8:15 AM 16.0 °F 5.3 °F 11.3 °F 82% 30.12 in 10.0 mi SSE 8.1 mph - N/A   Clear
8:35 AM 18.0 °F 6.9 °F 12.7 °F 80% 30.11 in 10.0 mi SSE 9.2 mph - N/A   Clear
8:55 AM 20.8 °F 10.4 °F 14.0 °F 75% 30.11 in 10.0 mi SSE 9.2 mph - N/A   Clear
9:15 AM 21.7 °F 10.8 °F 14.5 °F 74% 30.10 in 10.0 mi SSE 10.4 mph - N/A   Clear
9:35 AM 23.0 °F 12.4 °F 14.9 °F 71% 30.09 in 10.0 mi SSE 10.4 mph - N/A   Clear
9:55 AM 24.8 °F 14.6 °F 15.6 °F 68% 30.08 in 10.0 mi SSE 10.4 mph - N/A   Clear
10:15 AM 26.6 °F 15.7 °F 17.2 °F 68% 30.07 in 10.0 mi SSE 12.7 mph 18.4 mph N/A   Clear
10:35 AM 28.6 °F 18.7 °F 18.5 °F 66% 30.06 in 10.0 mi SSE 11.5 mph 16.1 mph N/A   Clear
10:55 AM 30.0 °F 20.0 °F 19.0 °F 64% 30.03 in 10.0 mi SSE 12.7 mph 18.4 mph N/A   Clear
11:15 AM 30.7 °F 20.9 °F 19.4 °F 63% 30.02 in 10.0 mi SSE 12.7 mph - N/A   Clear
11:35 AM 32.0 °F 23.0 °F 19.9 °F 61% 29.99 in 10.0 mi SSE 11.5 mph 19.6 mph N/A   Clear
11:55 AM 33.1 °F 24.4 °F 20.5 °F 60% 29.97 in 10.0 mi SSE 11.5 mph - N/A   Clear
12:15 PM 34.2 °F 25.7 °F 21.0 °F 59% 29.95 in 10.0 mi SSE 11.5 mph 18.4 mph N/A   Clear
12:35 PM 35.6 °F 27.5 °F 21.4 °F 56% 29.93 in 10.0 mi SSE 11.5 mph 17.3 mph N/A   Clear
12:55 PM 36.0 °F 27.5 °F 21.7 °F 56% 29.91 in 10.0 mi SSE 12.7 mph 17.3 mph N/A   Clear
1:15 PM 36.1 °F 28.2 °F 22.8 °F 58% 29.91 in 10.0 mi SSE 11.5 mph 16.1 mph N/A   Clear
1:35 PM 37.2 °F 27.9 °F 23.4 °F 57% 29.89 in 10.0 mi South 16.1 mph 20.7 mph N/A   Clear
1:55 PM 38.8 °F 30.4 °F 24.8 °F 57% 29.87 in 10.0 mi South 15.0 mph 21.9 mph N/A   Clear
2:15 PM 39.0 °F 30.6 °F 25.7 °F 59% 29.86 in 10.0 mi South 15.0 mph 23.0 mph N/A   Clear
2:35 PM 39.4 °F 31.1 °F 26.6 °F 60% 29.85 in 10.0 mi South 15.0 mph 24.2 mph N/A   Clear
2:55 PM 39.7 °F 31.5 °F 27.3 °F 61% 29.84 in 10.0 mi South 15.0 mph 21.9 mph N/A   Clear
3:15 PM 39.4 °F 31.8 °F 27.9 °F 63% 29.85 in 10.0 mi South 12.7 mph 20.7 mph N/A   Clear
3:35 PM 39.4 °F 32.3 °F 28.0 °F 64% 29.84 in 10.0 mi South 11.5 mph 18.4 mph N/A   Clear
3:55 PM 38.8 °F 31.6 °F 28.2 °F 66% 29.85 in 10.0 mi South 11.5 mph - N/A   Clear
4:15 PM 38.3 °F 32.5 °F 28.4 °F 68% 29.85 in 10.0 mi South 8.1 mph 16.1 mph N/A   Clear
4:35 PM 38.3 °F 32.5 °F 28.8 °F 69% 29.85 in 10.0 mi South 8.1 mph - N/A   Clear
4:55 PM 38.3 °F 31.4 °F 28.9 °F 69% 29.84 in 10.0 mi South 10.4 mph - N/A   Clear
5:15 PM 38.3 °F 31.9 °F 29.1 °F 70% 29.83 in 10.0 mi South 9.2 mph - N/A   Clear
5:35 PM 37.8 °F 30.2 °F 29.3 °F 72% 29.83 in 10.0 mi South 11.5 mph - N/A   Clear
5:55 PM 37.4 °F 30.8 °F 29.3 °F 73% 29.82 in 10.0 mi South 9.2 mph - N/A   Clear
6:15 PM 36.5 °F 30.3 °F 29.3 °F 75% 29.83 in 10.0 mi South 8.1 mph - N/A   Clear
6:35 PM 35.8 °F 29.4 °F 29.3 °F 77% 29.83 in 10.0 mi South 8.1 mph - N/A   Clear
6:55 PM 35.4 °F 29.0 °F 28.9 °F 77% 29.83 in 10.0 mi South 8.1 mph - N/A   Clear
7:15 PM 34.9 °F 29.0 °F 28.8 °F 78% 29.83 in 10.0 mi South 6.9 mph - N/A   Clear
7:35 PM 34.2 °F 27.5 °F 28.4 °F 79% 29.83 in 10.0 mi South 8.1 mph - N/A   Clear
7:55 PM 34.5 °F 28.6 °F 28.9 °F 80% 29.83 in 10.0 mi South 6.9 mph - N/A   Clear
8:15 PM 35.1 °F 29.3 °F 29.5 °F 80% 29.83 in 10.0 mi South 6.9 mph - N/A   Clear
8:35 PM 35.8 °F 30.1 °F 30.0 °F 80% 29.83 in 10.0 mi South 6.9 mph - N/A   Clear
8:55 PM 36.0 °F 30.3 °F 30.2 °F 80% 29.82 in 10.0 mi South 6.9 mph - N/A   Clear
9:15 PM 36.5 °F 31.0 °F 30.6 °F 79% 29.82 in 10.0 mi South 6.9 mph - N/A   Clear
9:35 PM 35.4 °F 30.5 °F 30.4 °F 82% 29.82 in 10.0 mi South 5.8 mph - N/A   Clear
9:55 PM 36.3 °F 30.8 °F 30.7 °F 80% 29.83 in 10.0 mi South 6.9 mph - N/A   Clear
10:15 PM 36.1 °F 30.6 °F 30.9 °F 81% 29.83 in 10.0 mi South 6.9 mph - N/A   Clear
10:35 PM 36.7 °F 29.9 °F 31.1 °F 80% 29.83 in 10.0 mi South 9.2 mph - N/A   Clear
10:55 PM 37.9 °F 30.0 °F 31.8 °F 79% 29.83 in 10.0 mi South 12.7 mph - N/A   Clear
11:15 PM 37.8 °F 30.2 °F 31.8 °F 79% 29.83 in 10.0 mi South 11.5 mph - N/A   Clear
11:35 PM 36.9 °F 28.7 °F 31.6 °F 81% 29.83 in 10.0 mi South 12.7 mph - N/A   Clear
11:55 PM 36.1 °F 28.2 °F 31.3 °F 83% 29.82 in 10.0 mi South 11.5 mph - N/A   Clear